owner,sensor,date,latitude,longitude,vertical_datum,sea_water_temperature,qcFlag 
WAVCIS,ioos:station:WAVCIS:CSI16:1,2011-10-01T00:00:00Z,29.4012,-89.0355,10.0,28.112,11111222 
WAVCIS,ioos:station:WAVCIS:CSI16:1,2011-10-01T00:15:00Z,29.4012,-89.0355,10.0,28.081,11111222 
WAVCIS,ioos:station:WAVCIS:CSI16:1,2011-10-01T00:30:00Z,29.4012,-89.0355,10.0,28.036,11111222 
WAVCIS,ioos:station:WAVCIS:CSI16:1,2011-10-01T00:45:00Z,29.4012,-89.0355,10.0,28.049,11111222 
WAVCIS,ioos:station:WAVCIS:CSI16:1,2011-10-01T01:00:00Z,29.4012,-89.0355,10.0,28.046,11111222 
WAVCIS,ioos:station:WAVCIS:CSI16:1,2011-10-01T01:15:00Z,29.4012,-89.0355,10.0,28.036,11111222 
WAVCIS,ioos:station:WAVCIS:CSI16:1,2011-10-01T01:30:00Z,29.4012,-89.0355,10.0,28.003,11111222 
WAVCIS,ioos:station:WAVCIS:CSI16:1,2011-10-01T01:45:00Z,29.4012,-89.0355,10.0,28.009,11111222 
WAVCIS,ioos:station:WAVCIS:CSI16:1,2011-10-01T02:00:00Z,29.4012,-89.0355,10.0,28.013,11111222 
WAVCIS,ioos:station:WAVCIS:CSI16:1,2011-10-01T02:15:00Z,29.4012,-89.0355,10.0,27.989,11111222 
WAVCIS,ioos:station:WAVCIS:CSI16:1,2011-10-01T02:30:00Z,29.4012,-89.0355,10.0,27.961,11111222 
WAVCIS,ioos:station:WAVCIS:CSI16:1,2011-10-01T02:45:00Z,29.4012,-89.0355,10.0,27.98,11111222 
WAVCIS,ioos:station:WAVCIS:CSI16:1,2011-10-01T03:00:00Z,29.4012,-89.0355,10.0,27.943,11111222 
WAVCIS,ioos:station:WAVCIS:CSI16:1,2011-10-01T03:15:00Z,29.4012,-89.0355,10.0,27.911,11111222 
WAVCIS,ioos:station:WAVCIS:CSI16:1,2011-10-01T03:30:00Z,29.4012,-89.0355,10.0,27.896,11111222 
WAVCIS,ioos:station:WAVCIS:CSI16:1,2011-10-01T03:45:00Z,29.4012,-89.0355,10.0,27.853,11111222 
WAVCIS,ioos:station:WAVCIS:CSI16:1,2011-10-01T04:00:00Z,29.4012,-89.0355,10.0,27.856,11111222 
WAVCIS,ioos:station:WAVCIS:CSI16:1,2011-10-01T04:15:00Z,29.4012,-89.0355,10.0,27.81,11111222 
WAVCIS,ioos:station:WAVCIS:CSI16:1,2011-10-01T04:30:00Z,29.4012,-89.0355,10.0,27.791,11111222 
WAVCIS,ioos:station:WAVCIS:CSI16:1,2011-10-01T04:45:00Z,29.4012,-89.0355,10.0,27.775,11111222 
WAVCIS,ioos:station:WAVCIS:CSI16:1,2011-10-01T05:00:00Z,29.4012,-89.0355,10.0,27.774,11111222 
WAVCIS,ioos:station:WAVCIS:CSI16:1,2011-10-01T05:15:00Z,29.4012,-89.0355,10.0,27.741,11111222 
WAVCIS,ioos:station:WAVCIS:CSI16:1,2011-10-01T05:30:00Z,29.4012,-89.0355,10.0,27.734,11111222 
WAVCIS,ioos:station:WAVCIS:CSI16:1,2011-10-01T05:45:00Z,29.4012,-89.0355,10.0,27.741,11111222 
WAVCIS,ioos:station:WAVCIS:CSI16:1,2011-10-01T06:00:00Z,29.4012,-89.0355,10.0,27.704,11111222 
WAVCIS,ioos:station:WAVCIS:CSI16:1,2011-10-01T06:15:00Z,29.4012,-89.0355,10.0,27.746,11111222 
WAVCIS,ioos:station:WAVCIS:CSI16:1,2011-10-01T06:30:00Z,29.4012,-89.0355,10.0,27.732,11111222 
WAVCIS,ioos:station:WAVCIS:CSI16:1,2011-10-01T06:45:00Z,29.4012,-89.0355,10.0,27.73,11111222 
WAVCIS,ioos:station:WAVCIS:CSI16:1,2011-10-01T07:00:00Z,29.4012,-89.0355,10.0,27.716,11111222 
WAVCIS,ioos:station:WAVCIS:CSI16:1,2011-10-01T07:15:00Z,29.4012,-89.0355,10.0,27.748,11111222 
WAVCIS,ioos:station:WAVCIS:CSI16:1,2011-10-01T07:30:00Z,29.4012,-89.0355,10.0,27.704,11111222 
WAVCIS,ioos:station:WAVCIS:CSI16:1,2011-10-01T07:45:00Z,29.4012,-89.0355,10.0,27.692,11111222 
WAVCIS,ioos:station:WAVCIS:CSI16:1,2011-10-01T08:00:00Z,29.4012,-89.0355,10.0,27.71,11111222 
WAVCIS,ioos:station:WAVCIS:CSI16:1,2011-10-01T08:15:00Z,29.4012,-89.0355,10.0,27.675,11111222 
WAVCIS,ioos:station:WAVCIS:CSI16:1,2011-10-01T08:30:00Z,29.4012,-89.0355,10.0,27.681,11111222 
WAVCIS,ioos:station:WAVCIS:CSI16:1,2011-10-01T08:45:00Z,29.4012,-89.0355,10.0,27.666,11111222 
WAVCIS,ioos:station:WAVCIS:CSI16:1,2011-10-01T09:00:00Z,29.4012,-89.0355,10.0,27.64,11111222 
WAVCIS,ioos:station:WAVCIS:CSI16:1,2011-10-01T09:15:00Z,29.4012,-89.0355,10.0,27.588,11111222 
WAVCIS,ioos:station:WAVCIS:CSI16:1,2011-10-01T09:30:00Z,29.4012,-89.0355,10.0,27.529,11111222 
WAVCIS,ioos:station:WAVCIS:CSI16:1,2011-10-01T09:45:00Z,29.4012,-89.0355,10.0,27.472,11111222 
WAVCIS,ioos:station:WAVCIS:CSI16:1,2011-10-01T10:00:00Z,29.4012,-89.0355,10.0,27.417,11111222 
WAVCIS,ioos:station:WAVCIS:CSI16:1,2011-10-01T10:15:00Z,29.4012,-89.0355,10.0,27.32,11111222 
WAVCIS,ioos:station:WAVCIS:CSI16:1,2011-10-01T10:30:00Z,29.4012,-89.0355,10.0,27.225,11111222 
WAVCIS,ioos:station:WAVCIS:CSI16:1,2011-10-01T10:45:00Z,29.4012,-89.0355,10.0,27.105,11111222 
WAVCIS,ioos:station:WAVCIS:CSI16:1,2011-10-01T11:00:00Z,29.4012,-89.0355,10.0,27.098,11111222 
WAVCIS,ioos:station:WAVCIS:CSI16:1,2011-10-01T11:15:00Z,29.4012,-89.0355,10.0,27.051,11111222 
WAVCIS,ioos:station:WAVCIS:CSI16:1,2011-10-01T11:30:00Z,29.4012,-89.0355,10.0,27.028,11111222 
WAVCIS,ioos:station:WAVCIS:CSI16:1,2011-10-01T11:45:00Z,29.4012,-89.0355,10.0,26.95,11111222 
WAVCIS,ioos:station:WAVCIS:CSI16:1,2011-10-01T12:00:00Z,29.4012,-89.0355,10.0,26.902,11111222 
WAVCIS,ioos:station:WAVCIS:CSI16:1,2011-10-01T12:15:00Z,29.4012,-89.0355,10.0,26.852,11111222 
WAVCIS,ioos:station:WAVCIS:CSI16:1,2011-10-01T12:30:00Z,29.4012,-89.0355,10.0,26.833,11111222 
WAVCIS,ioos:station:WAVCIS:CSI16:1,2011-10-01T12:45:00Z,29.4012,-89.0355,10.0,26.791,11111222 
WAVCIS,ioos:station:WAVCIS:CSI16:1,2011-10-01T13:00:00Z,29.4012,-89.0355,10.0,26.723,11111222 
WAVCIS,ioos:station:WAVCIS:CSI16:1,2011-10-01T13:15:00Z,29.4012,-89.0355,10.0,26.666,11111222 
WAVCIS,ioos:station:WAVCIS:CSI16:1,2011-10-01T13:30:00Z,29.4012,-89.0355,10.0,26.603,11111222 
WAVCIS,ioos:station:WAVCIS:CSI16:1,2011-10-01T13:45:00Z,29.4012,-89.0355,10.0,26.614,11111222 
WAVCIS,ioos:station:WAVCIS:CSI16:1,2011-10-01T14:00:00Z,29.4012,-89.0355,10.0,26.616,11111222 
WAVCIS,ioos:station:WAVCIS:CSI16:1,2011-10-01T14:15:00Z,29.4012,-89.0355,10.0,26.598,11111222 
WAVCIS,ioos:station:WAVCIS:CSI16:1,2011-10-01T14:30:00Z,29.4012,-89.0355,10.0,26.607,11111222 
WAVCIS,ioos:station:WAVCIS:CSI16:1,2011-10-01T14:45:00Z,29.4012,-89.0355,10.0,26.597,11111222 
WAVCIS,ioos:station:WAVCIS:CSI16:1,2011-10-01T15:00:00Z,29.4012,-89.0355,10.0,26.578,11111222 
WAVCIS,ioos:station:WAVCIS:CSI16:1,2011-10-01T15:15:00Z,29.4012,-89.0355,10.0,26.576,11111222 
WAVCIS,ioos:station:WAVCIS:CSI16:1,2011-10-01T15:30:00Z,29.4012,-89.0355,10.0,26.562,11111222 
WAVCIS,ioos:station:WAVCIS:CSI16:1,2011-10-01T15:45:00Z,29.4012,-89.0355,10.0,26.549,11111222 
WAVCIS,ioos:station:WAVCIS:CSI16:1,2011-10-01T16:00:00Z,29.4012,-89.0355,10.0,26.546,11111222 
WAVCIS,ioos:station:WAVCIS:CSI16:1,2011-10-01T16:15:00Z,29.4012,-89.0355,10.0,26.542,11111222 
WAVCIS,ioos:station:WAVCIS:CSI16:1,2011-10-01T16:30:00Z,29.4012,-89.0355,10.0,26.532,11111222 
WAVCIS,ioos:station:WAVCIS:CSI16:1,2011-10-01T16:45:00Z,29.4012,-89.0355,10.0,26.523,11111222 
WAVCIS,ioos:station:WAVCIS:CSI16:1,2011-10-01T17:00:00Z,29.4012,-89.0355,10.0,26.505,11111222 
WAVCIS,ioos:station:WAVCIS:CSI16:1,2011-10-01T17:15:00Z,29.4012,-89.0355,10.0,26.477,11111222 
WAVCIS,ioos:station:WAVCIS:CSI16:1,2011-10-01T17:30:00Z,29.4012,-89.0355,10.0,26.421,11111222 
WAVCIS,ioos:station:WAVCIS:CSI16:1,2011-10-01T17:45:00Z,29.4012,-89.0355,10.0,26.341,11111222 
WAVCIS,ioos:station:WAVCIS:CSI16:1,2011-10-01T18:00:00Z,29.4012,-89.0355,10.0,26.109,11111222 
WAVCIS,ioos:station:WAVCIS:CSI16:1,2011-10-01T18:15:00Z,29.4012,-89.0355,10.0,25.674,11111222 
WAVCIS,ioos:station:WAVCIS:CSI16:1,2011-10-01T18:30:00Z,29.4012,-89.0355,10.0,26.05,11111222 
WAVCIS,ioos:station:WAVCIS:CSI16:1,2011-10-01T18:45:00Z,29.4012,-89.0355,10.0,25.874,11111222 
WAVCIS,ioos:station:WAVCIS:CSI16:1,2011-10-01T19:00:00Z,29.4012,-89.0355,10.0,25.91,11111222 
WAVCIS,ioos:station:WAVCIS:CSI16:1,2011-10-01T19:15:00Z,29.4012,-89.0355,10.0,26.01,11111222 
WAVCIS,ioos:station:WAVCIS:CSI16:1,2011-10-01T19:30:00Z,29.4012,-89.0355,10.0,26.154,11111222 
WAVCIS,ioos:station:WAVCIS:CSI16:1,2011-10-01T19:45:00Z,29.4012,-89.0355,10.0,26.241,11111222 
WAVCIS,ioos:station:WAVCIS:CSI16:1,2011-10-01T20:00:00Z,29.4012,-89.0355,10.0,26.027,11111222 
WAVCIS,ioos:station:WAVCIS:CSI16:1,2011-10-01T20:15:00Z,29.4012,-89.0355,10.0,26.065,11111222 
WAVCIS,ioos:station:WAVCIS:CSI16:1,2011-10-01T20:30:00Z,29.4012,-89.0355,10.0,26.096,11111222 
WAVCIS,ioos:station:WAVCIS:CSI16:1,2011-10-01T20:45:00Z,29.4012,-89.0355,10.0,26.093,11111222 
WAVCIS,ioos:station:WAVCIS:CSI16:1,2011-10-01T21:00:00Z,29.4012,-89.0355,10.0,26.07,11111222 
WAVCIS,ioos:station:WAVCIS:CSI16:1,2011-10-01T21:15:00Z,29.4012,-89.0355,10.0,26.117,11111222 
WAVCIS,ioos:station:WAVCIS:CSI16:1,2011-10-01T21:30:00Z,29.4012,-89.0355,10.0,26.21,11111222 
WAVCIS,ioos:station:WAVCIS:CSI16:1,2011-10-01T21:45:00Z,29.4012,-89.0355,10.0,26.111,11111222 
WAVCIS,ioos:station:WAVCIS:CSI16:1,2011-10-01T22:00:00Z,29.4012,-89.0355,10.0,26.126,11111222 
WAVCIS,ioos:station:WAVCIS:CSI16:1,2011-10-01T22:15:00Z,29.4012,-89.0355,10.0,26.162,11111222 
WAVCIS,ioos:station:WAVCIS:CSI16:1,2011-10-01T22:30:00Z,29.4012,-89.0355,10.0,26.157,11111222 
WAVCIS,ioos:station:WAVCIS:CSI16:1,2011-10-01T22:45:00Z,29.4012,-89.0355,10.0,26.185,11111222 
WAVCIS,ioos:station:WAVCIS:CSI16:1,2011-10-01T23:00:00Z,29.4012,-89.0355,10.0,26.299,11111222 
WAVCIS,ioos:station:WAVCIS:CSI16:1,2011-10-01T23:15:00Z,29.4012,-89.0355,10.0,26.194,11111222 
WAVCIS,ioos:station:WAVCIS:CSI16:1,2011-10-01T23:30:00Z,29.4012,-89.0355,10.0,26.26,11111222 
WAVCIS,ioos:station:WAVCIS:CSI16:1,2011-10-01T23:45:00Z,29.4012,-89.0355,10.0,26.162,11111222 
WAVCIS,ioos:station:WAVCIS:CSI16:1,2011-10-02T00:00:00Z,29.4012,-89.0355,10.0,26.092,11111222 
WAVCIS,ioos:station:WAVCIS:CSI16:1,2011-10-02T00:15:00Z,29.4012,-89.0355,10.0,26.281,11111222 
WAVCIS,ioos:station:WAVCIS:CSI16:1,2011-10-02T00:30:00Z,29.4012,-89.0355,10.0,26.12,11111222 
WAVCIS,ioos:station:WAVCIS:CSI16:1,2011-10-02T00:45:00Z,29.4012,-89.0355,10.0,26.263,11111222 
WAVCIS,ioos:station:WAVCIS:CSI16:1,2011-10-02T01:00:00Z,29.4012,-89.0355,10.0,26.33,11111222 
WAVCIS,ioos:station:WAVCIS:CSI16:1,2011-10-02T01:15:00Z,29.4012,-89.0355,10.0,26.415,11111222 
WAVCIS,ioos:station:WAVCIS:CSI16:1,2011-10-02T01:30:00Z,29.4012,-89.0355,10.0,26.491,11111222 
WAVCIS,ioos:station:WAVCIS:CSI16:1,2011-10-02T01:45:00Z,29.4012,-89.0355,10.0,26.51,11111222 
WAVCIS,ioos:station:WAVCIS:CSI16:1,2011-10-02T02:00:00Z,29.4012,-89.0355,10.0,26.575,11111222 
WAVCIS,ioos:station:WAVCIS:CSI16:1,2011-10-02T02:15:00Z,29.4012,-89.0355,10.0,26.67,11111222 
WAVCIS,ioos:station:WAVCIS:CSI16:1,2011-10-02T02:30:00Z,29.4012,-89.0355,10.0,26.808,11111222 
WAVCIS,ioos:station:WAVCIS:CSI16:1,2011-10-02T02:45:00Z,29.4012,-89.0355,10.0,26.879,11111222 
WAVCIS,ioos:station:WAVCIS:CSI16:1,2011-10-02T03:00:00Z,29.4012,-89.0355,10.0,26.905,11111222 
WAVCIS,ioos:station:WAVCIS:CSI16:1,2011-10-02T03:15:00Z,29.4012,-89.0355,10.0,26.899,11111222 
WAVCIS,ioos:station:WAVCIS:CSI16:1,2011-10-02T03:30:00Z,29.4012,-89.0355,10.0,26.879,11111222 
WAVCIS,ioos:station:WAVCIS:CSI16:1,2011-10-02T03:45:00Z,29.4012,-89.0355,10.0,26.894,11111222 
WAVCIS,ioos:station:WAVCIS:CSI16:1,2011-10-02T04:00:00Z,29.4012,-89.0355,10.0,26.904,11111222 
WAVCIS,ioos:station:WAVCIS:CSI16:1,2011-10-02T04:15:00Z,29.4012,-89.0355,10.0,26.871,11111222 
WAVCIS,ioos:station:WAVCIS:CSI16:1,2011-10-02T04:30:00Z,29.4012,-89.0355,10.0,26.875,11111222 
WAVCIS,ioos:station:WAVCIS:CSI16:1,2011-10-02T04:45:00Z,29.4012,-89.0355,10.0,26.917,11111222 
WAVCIS,ioos:station:WAVCIS:CSI16:1,2011-10-02T05:00:00Z,29.4012,-89.0355,10.0,26.864,11111222 
WAVCIS,ioos:station:WAVCIS:CSI16:1,2011-10-02T05:15:00Z,29.4012,-89.0355,10.0,26.892,11111222 
WAVCIS,ioos:station:WAVCIS:CSI16:1,2011-10-02T05:30:00Z,29.4012,-89.0355,10.0,26.824,11111222 
WAVCIS,ioos:station:WAVCIS:CSI16:1,2011-10-02T05:45:00Z,29.4012,-89.0355,10.0,26.811,11111222 
WAVCIS,ioos:station:WAVCIS:CSI16:1,2011-10-02T06:00:00Z,29.4012,-89.0355,10.0,26.808,11111222 
WAVCIS,ioos:station:WAVCIS:CSI16:1,2011-10-02T06:15:00Z,29.4012,-89.0355,10.0,26.799,11111222 
WAVCIS,ioos:station:WAVCIS:CSI16:1,2011-10-02T06:30:00Z,29.4012,-89.0355,10.0,26.773,11111222 
WAVCIS,ioos:station:WAVCIS:CSI16:1,2011-10-02T06:45:00Z,29.4012,-89.0355,10.0,26.751,11111222 
WAVCIS,ioos:station:WAVCIS:CSI16:1,2011-10-02T07:00:00Z,29.4012,-89.0355,10.0,26.76,11111222 
WAVCIS,ioos:station:WAVCIS:CSI16:1,2011-10-02T07:15:00Z,29.4012,-89.0355,10.0,26.735,11111222 
WAVCIS,ioos:station:WAVCIS:CSI16:1,2011-10-02T07:30:00Z,29.4012,-89.0355,10.0,26.752,11111222 
WAVCIS,ioos:station:WAVCIS:CSI16:1,2011-10-02T07:45:00Z,29.4012,-89.0355,10.0,26.751,11111222 
WAVCIS,ioos:station:WAVCIS:CSI16:1,2011-10-02T08:00:00Z,29.4012,-89.0355,10.0,26.691,11111222 
WAVCIS,ioos:station:WAVCIS:CSI16:1,2011-10-02T08:15:00Z,29.4012,-89.0355,10.0,26.634,11111222 
WAVCIS,ioos:station:WAVCIS:CSI16:1,2011-10-02T08:30:00Z,29.4012,-89.0355,10.0,26.641,11111222 
WAVCIS,ioos:station:WAVCIS:CSI16:1,2011-10-02T08:45:00Z,29.4012,-89.0355,10.0,26.597,11111222 
WAVCIS,ioos:station:WAVCIS:CSI16:1,2011-10-02T09:00:00Z,29.4012,-89.0355,10.0,26.572,11111222 
WAVCIS,ioos:station:WAVCIS:CSI16:1,2011-10-02T09:15:00Z,29.4012,-89.0355,10.0,26.515,11111222 
WAVCIS,ioos:station:WAVCIS:CSI16:1,2011-10-02T09:30:00Z,29.4012,-89.0355,10.0,26.455,11111222 
WAVCIS,ioos:station:WAVCIS:CSI16:1,2011-10-02T09:45:00Z,29.4012,-89.0355,10.0,26.374,11111222 
WAVCIS,ioos:station:WAVCIS:CSI16:1,2011-10-02T10:00:00Z,29.4012,-89.0355,10.0,26.279,11111222 
WAVCIS,ioos:station:WAVCIS:CSI16:1,2011-10-02T10:15:00Z,29.4012,-89.0355,10.0,26.253,11111222 
WAVCIS,ioos:station:WAVCIS:CSI16:1,2011-10-02T10:30:00Z,29.4012,-89.0355,10.0,26.21,11111222 
WAVCIS,ioos:station:WAVCIS:CSI16:1,2011-10-02T10:45:00Z,29.4012,-89.0355,10.0,26.222,11111222 
WAVCIS,ioos:station:WAVCIS:CSI16:1,2011-10-02T11:00:00Z,29.4012,-89.0355,10.0,26.107,11111222 
WAVCIS,ioos:station:WAVCIS:CSI16:1,2011-10-02T11:15:00Z,29.4012,-89.0355,10.0,26.02,11111222 
WAVCIS,ioos:station:WAVCIS:CSI16:1,2011-10-02T11:30:00Z,29.4012,-89.0355,10.0,26.087,11111222 
WAVCIS,ioos:station:WAVCIS:CSI16:1,2011-10-02T11:45:00Z,29.4012,-89.0355,10.0,26.13,11111222 
WAVCIS,ioos:station:WAVCIS:CSI16:1,2011-10-02T12:00:00Z,29.4012,-89.0355,10.0,26.142,11111222 
WAVCIS,ioos:station:WAVCIS:CSI16:1,2011-10-02T12:15:00Z,29.4012,-89.0355,10.0,26.115,11111222 
WAVCIS,ioos:station:WAVCIS:CSI16:1,2011-10-02T12:30:00Z,29.4012,-89.0355,10.0,26.028,11111222 
WAVCIS,ioos:station:WAVCIS:CSI16:1,2011-10-02T12:45:00Z,29.4012,-89.0355,10.0,25.992,11111222 
WAVCIS,ioos:station:WAVCIS:CSI16:1,2011-10-02T13:00:00Z,29.4012,-89.0355,10.0,25.946,11111222 
WAVCIS,ioos:station:WAVCIS:CSI16:1,2011-10-02T13:15:00Z,29.4012,-89.0355,10.0,25.767,11111222 
WAVCIS,ioos:station:WAVCIS:CSI16:1,2011-10-02T13:30:00Z,29.4012,-89.0355,10.0,25.506,11111222 
WAVCIS,ioos:station:WAVCIS:CSI16:1,2011-10-02T13:45:00Z,29.4012,-89.0355,10.0,25.361,11111222 
WAVCIS,ioos:station:WAVCIS:CSI16:1,2011-10-02T14:00:00Z,29.4012,-89.0355,10.0,25.243,11111222 
WAVCIS,ioos:station:WAVCIS:CSI16:1,2011-10-02T14:15:00Z,29.4012,-89.0355,10.0,25.214,11111222 
WAVCIS,ioos:station:WAVCIS:CSI16:1,2011-10-02T14:30:00Z,29.4012,-89.0355,10.0,24.108,11111222 
WAVCIS,ioos:station:WAVCIS:CSI16:1,2011-10-02T14:45:00Z,29.4012,-89.0355,10.0,24.187,11111222 
WAVCIS,ioos:station:WAVCIS:CSI16:1,2011-10-02T15:00:00Z,29.4012,-89.0355,10.0,24.473,11111222 
WAVCIS,ioos:station:WAVCIS:CSI16:1,2011-10-02T15:15:00Z,29.4012,-89.0355,10.0,24.75,11111222 
WAVCIS,ioos:station:WAVCIS:CSI16:1,2011-10-02T15:30:00Z,29.4012,-89.0355,10.0,24.729,11111222 
WAVCIS,ioos:station:WAVCIS:CSI16:1,2011-10-02T15:45:00Z,29.4012,-89.0355,10.0,24.548,11111222 
WAVCIS,ioos:station:WAVCIS:CSI16:1,2011-10-02T16:00:00Z,29.4012,-89.0355,10.0,24.349,11111222 
WAVCIS,ioos:station:WAVCIS:CSI16:1,2011-10-02T16:15:00Z,29.4012,-89.0355,10.0,24.328,11111222 
WAVCIS,ioos:station:WAVCIS:CSI16:1,2011-10-02T16:30:00Z,29.4012,-89.0355,10.0,24.248,11111222 
WAVCIS,ioos:station:WAVCIS:CSI16:1,2011-10-02T16:45:00Z,29.4012,-89.0355,10.0,24.198,11111222 
WAVCIS,ioos:station:WAVCIS:CSI16:1,2011-10-02T17:00:00Z,29.4012,-89.0355,10.0,24.434,11111222 
WAVCIS,ioos:station:WAVCIS:CSI16:1,2011-10-02T17:15:00Z,29.4012,-89.0355,10.0,24.606,11111222 
WAVCIS,ioos:station:WAVCIS:CSI16:1,2011-10-02T17:30:00Z,29.4012,-89.0355,10.0,24.832,11111222 
WAVCIS,ioos:station:WAVCIS:CSI16:1,2011-10-02T17:45:00Z,29.4012,-89.0355,10.0,24.905,11111222 
WAVCIS,ioos:station:WAVCIS:CSI16:1,2011-10-02T18:00:00Z,29.4012,-89.0355,10.0,24.965,11111222 
WAVCIS,ioos:station:WAVCIS:CSI16:1,2011-10-02T18:15:00Z,29.4012,-89.0355,10.0,25.032,11111222 
WAVCIS,ioos:station:WAVCIS:CSI16:1,2011-10-02T18:30:00Z,29.4012,-89.0355,10.0,25.128,11111222 
WAVCIS,ioos:station:WAVCIS:CSI16:1,2011-10-02T18:45:00Z,29.4012,-89.0355,10.0,25.167,11111222 
WAVCIS,ioos:station:WAVCIS:CSI16:1,2011-10-02T19:00:00Z,29.4012,-89.0355,10.0,25.084,11111222 
WAVCIS,ioos:station:WAVCIS:CSI16:1,2011-10-02T19:15:00Z,29.4012,-89.0355,10.0,25.116,11111222 
WAVCIS,ioos:station:WAVCIS:CSI16:1,2011-10-02T19:30:00Z,29.4012,-89.0355,10.0,25.23,11111222 
WAVCIS,ioos:station:WAVCIS:CSI16:1,2011-10-02T19:45:00Z,29.4012,-89.0355,10.0,25.172,11111222 
WAVCIS,ioos:station:WAVCIS:CSI16:1,2011-10-02T20:00:00Z,29.4012,-89.0355,10.0,24.959,11111222 
WAVCIS,ioos:station:WAVCIS:CSI16:1,2011-10-02T20:15:00Z,29.4012,-89.0355,10.0,24.995,11111222 
WAVCIS,ioos:station:WAVCIS:CSI16:1,2011-10-02T20:30:00Z,29.4012,-89.0355,10.0,24.96,11111222 
WAVCIS,ioos:station:WAVCIS:CSI16:1,2011-10-02T20:45:00Z,29.4012,-89.0355,10.0,24.788,11111222 
WAVCIS,ioos:station:WAVCIS:CSI16:1,2011-10-02T21:00:00Z,29.4012,-89.0355,10.0,24.738,11111222 
WAVCIS,ioos:station:WAVCIS:CSI16:1,2011-10-02T21:15:00Z,29.4012,-89.0355,10.0,24.693,11111222 
WAVCIS,ioos:station:WAVCIS:CSI16:1,2011-10-02T21:30:00Z,29.4012,-89.0355,10.0,24.605,11111222 
WAVCIS,ioos:station:WAVCIS:CSI16:1,2011-10-02T21:45:00Z,29.4012,-89.0355,10.0,24.559,11111222 
WAVCIS,ioos:station:WAVCIS:CSI16:1,2011-10-02T22:00:00Z,29.4012,-89.0355,10.0,24.546,11111222 
WAVCIS,ioos:station:WAVCIS:CSI16:1,2011-10-02T22:15:00Z,29.4012,-89.0355,10.0,24.525,11111222 
WAVCIS,ioos:station:WAVCIS:CSI16:1,2011-10-02T22:30:00Z,29.4012,-89.0355,10.0,24.512,11111222 
WAVCIS,ioos:station:WAVCIS:CSI16:1,2011-10-02T22:45:00Z,29.4012,-89.0355,10.0,24.551,11111222 
WAVCIS,ioos:station:WAVCIS:CSI16:1,2011-10-02T23:00:00Z,29.4012,-89.0355,10.0,24.556,11111222 
WAVCIS,ioos:station:WAVCIS:CSI16:1,2011-10-02T23:15:00Z,29.4012,-89.0355,10.0,24.584,11111222 
WAVCIS,ioos:station:WAVCIS:CSI16:1,2011-10-02T23:30:00Z,29.4012,-89.0355,10.0,24.648,11111222 
WAVCIS,ioos:station:WAVCIS:CSI16:1,2011-10-02T23:45:00Z,29.4012,-89.0355,10.0,24.911,11111222 
WAVCIS,ioos:station:WAVCIS:CSI16:1,2011-10-03T00:00:00Z,29.4012,-89.0355,10.0,25.027,11111222 
WAVCIS,ioos:station:WAVCIS:CSI16:1,2011-10-03T00:15:00Z,29.4012,-89.0355,10.0,24.997,11111222 
WAVCIS,ioos:station:WAVCIS:CSI16:1,2011-10-03T00:30:00Z,29.4012,-89.0355,10.0,25.184,11111222 
WAVCIS,ioos:station:WAVCIS:CSI16:1,2011-10-03T00:45:00Z,29.4012,-89.0355,10.0,25.141,11111222 
WAVCIS,ioos:station:WAVCIS:CSI16:1,2011-10-03T01:00:00Z,29.4012,-89.0355,10.0,25.233,11111222 
WAVCIS,ioos:station:WAVCIS:CSI16:1,2011-10-03T01:15:00Z,29.4012,-89.0355,10.0,25.313,11111222 
WAVCIS,ioos:station:WAVCIS:CSI16:1,2011-10-03T01:30:00Z,29.4012,-89.0355,10.0,25.437,11111222 
WAVCIS,ioos:station:WAVCIS:CSI16:1,2011-10-03T01:45:00Z,29.4012,-89.0355,10.0,25.432,11111222 
WAVCIS,ioos:station:WAVCIS:CSI16:1,2011-10-03T02:00:00Z,29.4012,-89.0355,10.0,25.414,11111222 
WAVCIS,ioos:station:WAVCIS:CSI16:1,2011-10-03T02:15:00Z,29.4012,-89.0355,10.0,25.904,11111222 
WAVCIS,ioos:station:WAVCIS:CSI16:1,2011-10-03T02:30:00Z,29.4012,-89.0355,10.0,25.908,11111222 
WAVCIS,ioos:station:WAVCIS:CSI16:1,2011-10-03T02:45:00Z,29.4012,-89.0355,10.0,25.93,11111222 
WAVCIS,ioos:station:WAVCIS:CSI16:1,2011-10-03T03:00:00Z,29.4012,-89.0355,10.0,25.861,11111222 
WAVCIS,ioos:station:WAVCIS:CSI16:1,2011-10-03T03:15:00Z,29.4012,-89.0355,10.0,25.892,11111222 
WAVCIS,ioos:station:WAVCIS:CSI16:1,2011-10-03T03:30:00Z,29.4012,-89.0355,10.0,25.892,11111222 
WAVCIS,ioos:station:WAVCIS:CSI16:1,2011-10-03T03:45:00Z,29.4012,-89.0355,10.0,25.911,11111222 
WAVCIS,ioos:station:WAVCIS:CSI16:1,2011-10-03T04:00:00Z,29.4012,-89.0355,10.0,25.909,11111222 
WAVCIS,ioos:station:WAVCIS:CSI16:1,2011-10-03T04:15:00Z,29.4012,-89.0355,10.0,25.911,11111222 
WAVCIS,ioos:station:WAVCIS:CSI16:1,2011-10-03T04:30:00Z,29.4012,-89.0355,10.0,25.917,11111222 
WAVCIS,ioos:station:WAVCIS:CSI16:1,2011-10-03T04:45:00Z,29.4012,-89.0355,10.0,25.886,11111222 
WAVCIS,ioos:station:WAVCIS:CSI16:1,2011-10-03T05:00:00Z,29.4012,-89.0355,10.0,25.889,11111222 
WAVCIS,ioos:station:WAVCIS:CSI16:1,2011-10-03T05:15:00Z,29.4012,-89.0355,10.0,25.911,11111222 
WAVCIS,ioos:station:WAVCIS:CSI16:1,2011-10-03T05:30:00Z,29.4012,-89.0355,10.0,25.912,11111222 
WAVCIS,ioos:station:WAVCIS:CSI16:1,2011-10-03T05:45:00Z,29.4012,-89.0355,10.0,25.926,11111222 
WAVCIS,ioos:station:WAVCIS:CSI16:1,2011-10-03T06:00:00Z,29.4012,-89.0355,10.0,25.925,11111222 
WAVCIS,ioos:station:WAVCIS:CSI16:1,2011-10-03T06:15:00Z,29.4012,-89.0355,10.0,25.769,11111222 
WAVCIS,ioos:station:WAVCIS:CSI16:1,2011-10-03T06:30:00Z,29.4012,-89.0355,10.0,25.859,11111222 
WAVCIS,ioos:station:WAVCIS:CSI16:1,2011-10-03T06:45:00Z,29.4012,-89.0355,10.0,25.913,11111222 
WAVCIS,ioos:station:WAVCIS:CSI16:1,2011-10-03T07:00:00Z,29.4012,-89.0355,10.0,25.935,11111222 
WAVCIS,ioos:station:WAVCIS:CSI16:1,2011-10-03T07:15:00Z,29.4012,-89.0355,10.0,25.831,11111222 
WAVCIS,ioos:station:WAVCIS:CSI16:1,2011-10-03T07:30:00Z,29.4012,-89.0355,10.0,25.843,11111222 
WAVCIS,ioos:station:WAVCIS:CSI16:1,2011-10-03T07:45:00Z,29.4012,-89.0355,10.0,25.894,11111222 
WAVCIS,ioos:station:WAVCIS:CSI16:1,2011-10-03T08:00:00Z,29.4012,-89.0355,10.0,25.92,11111222 
WAVCIS,ioos:station:WAVCIS:CSI16:1,2011-10-03T08:15:00Z,29.4012,-89.0355,10.0,25.905,11111222 
WAVCIS,ioos:station:WAVCIS:CSI16:1,2011-10-03T08:30:00Z,29.4012,-89.0355,10.0,25.888,11111222 
WAVCIS,ioos:station:WAVCIS:CSI16:1,2011-10-03T08:45:00Z,29.4012,-89.0355,10.0,25.873,11111222 
WAVCIS,ioos:station:WAVCIS:CSI16:1,2011-10-03T09:00:00Z,29.4012,-89.0355,10.0,25.919,11111222 
WAVCIS,ioos:station:WAVCIS:CSI16:1,2011-10-03T09:15:00Z,29.4012,-89.0355,10.0,25.897,11111222 
WAVCIS,ioos:station:WAVCIS:CSI16:1,2011-10-03T09:30:00Z,29.4012,-89.0355,10.0,25.868,11111222 
WAVCIS,ioos:station:WAVCIS:CSI16:1,2011-10-03T09:45:00Z,29.4012,-89.0355,10.0,25.835,11111222 
WAVCIS,ioos:station:WAVCIS:CSI16:1,2011-10-03T10:00:00Z,29.4012,-89.0355,10.0,25.813,11111222 
WAVCIS,ioos:station:WAVCIS:CSI16:1,2011-10-03T10:15:00Z,29.4012,-89.0355,10.0,25.765,11111222 
WAVCIS,ioos:station:WAVCIS:CSI16:1,2011-10-03T10:30:00Z,29.4012,-89.0355,10.0,25.703,11111222 
WAVCIS,ioos:station:WAVCIS:CSI16:1,2011-10-03T10:45:00Z,29.4012,-89.0355,10.0,25.673,11111222 
WAVCIS,ioos:station:WAVCIS:CSI16:1,2011-10-03T11:00:00Z,29.4012,-89.0355,10.0,25.556,11111222 
WAVCIS,ioos:station:WAVCIS:CSI16:1,2011-10-03T11:15:00Z,29.4012,-89.0355,10.0,25.417,11111222 
WAVCIS,ioos:station:WAVCIS:CSI16:1,2011-10-03T11:30:00Z,29.4012,-89.0355,10.0,25.237,11111222 
WAVCIS,ioos:station:WAVCIS:CSI16:1,2011-10-03T11:45:00Z,29.4012,-89.0355,10.0,25.103,11111222 
WAVCIS,ioos:station:WAVCIS:CSI16:1,2011-10-03T12:00:00Z,29.4012,-89.0355,10.0,25.019,11111222 
WAVCIS,ioos:station:WAVCIS:CSI16:1,2011-10-03T12:15:00Z,29.4012,-89.0355,10.0,25.188,11111222 
WAVCIS,ioos:station:WAVCIS:CSI16:1,2011-10-03T12:30:00Z,29.4012,-89.0355,10.0,24.857,11111222 
WAVCIS,ioos:station:WAVCIS:CSI16:1,2011-10-03T12:45:00Z,29.4012,-89.0355,10.0,24.448,11111222 
WAVCIS,ioos:station:WAVCIS:CSI16:1,2011-10-03T13:00:00Z,29.4012,-89.0355,10.0,24.475,11111222 
WAVCIS,ioos:station:WAVCIS:CSI16:1,2011-10-03T13:15:00Z,29.4012,-89.0355,10.0,24.694,11111222 
WAVCIS,ioos:station:WAVCIS:CSI16:1,2011-10-03T13:30:00Z,29.4012,-89.0355,10.0,24.688,11111222 
WAVCIS,ioos:station:WAVCIS:CSI16:1,2011-10-03T13:45:00Z,29.4012,-89.0355,10.0,24.399,11111222 
WAVCIS,ioos:station:WAVCIS:CSI16:1,2011-10-03T14:00:00Z,29.4012,-89.0355,10.0,23.775,11111222 
WAVCIS,ioos:station:WAVCIS:CSI16:1,2011-10-03T14:15:00Z,29.4012,-89.0355,10.0,23.618,11111222 
WAVCIS,ioos:station:WAVCIS:CSI16:1,2011-10-03T14:30:00Z,29.4012,-89.0355,10.0,23.483,11111222 
WAVCIS,ioos:station:WAVCIS:CSI16:1,2011-10-03T14:45:00Z,29.4012,-89.0355,10.0,23.399,11111222 